Location: Unspecified
(0.0000°N, 0.0000°E)
Time: 05:37:17
(UTC+00:00)

METEOR M2 - Pass Details

Date: 08 July 2020
Orbit: 818 x 828 km, 98.5° (Epoch: 13 August)

Event Time Altitude Azimuth Distance (km) Brightness Sun altitude
Exits shadow 19:30:04 36° 104° (ESE) 1,291 ? -19.5°
Maximum altitude 19:31:05 39° 77° (ENE) 1,215 ? -19.8°
Drops below altitude 10° 19:36:03 10° 10° (N) 2,420 ? -20.9°
Sets 19:38:31 0° 2° (N) 3,351 ? -21.5°
